Wind_Speed
28 28 27 27 27 26 26 27 27 26 25 25 24 23 22 21 21 20 21 21 21 20 21 22 23 24 26 26 26 25 24 22 21 20 19 18 18 17 16 16 16 15 14
31 29 28 27 27 27 27 27 27 27 26 25 25 23 22 21 21 21 20 19 19 19 20 20 21 23 25 26 27 28 27 26 25 23 22 21 20 19 18 17 17 17 16
33 31 29 28 27 27 27 27 27 27 27 25 25 24 22 21 20 21 19 18 18 18 19 21 21 22 23 26 27 29 30 30 29 28 26 25 24 23 21 20 19 18 18
34 31 29 28 27 26 26 27 27 27 26 25 24 23 21 20 19 18 17 16 17 17 18 19 20 22 23 24 26 29 30 31 32 31 30 29 28 27 25 24 22 21 20
32 30 30 29 26 25 25 26 26 26 25 25 24 23 22 20 19 17 16 15 15 16 16 17 19 20 21 23 25 26 30 32 33 33 33 33 32 30 29 27 26 25 23
31 30 29 28 27 25 25 25 25 24 24 24 24 23 22 21 19 17 16 15 14 14 15 16 17 19 20 22 24 26 28 31 32 32 33 34 35 35 33 32 30 28 27
31 30 30 29 28 26 25 25 24 24 24 24 24 23 22 21 19 18 16 14 14 14 14 15 16 17 19 21 23 25 27 29 31 32 33 34 36 37 37 36 33 32 30
30 30 29 29 28 27 27 26 25 25 24 24 24 23 22 22 20 19 17 16 14 14 14 14 15 17 18 20 22 25 26 29 31 32 33 34 37 37 37 36 35 34 33
26 28 29 29 28 28 28 28 27 26 26 25 25 24 23 23 22 21 19 17 16 15 15 15 16 17 18 20 22 25 27 29 31 31 33 33 35 37 37 36 36 36 34
28 28 29 29 29 29 29 29 29 28 28 27 26 26 25 25 23 22 21 19 18 17 16 16 16 17 18 20 22 24 26 29 31 31 32 32 32 33 34 36 36 36 35
30 32 32 31 31 31 31 31 31 31 31 30 29 28 27 26 26 25 23 22 20 19 18 18 18 18 18 19 21 23 25 27 29 31 32 32 32 30 31 33 34 36 36
35 35 36 35 34 33 33 33 33 34 33 33 32 31 30 28 28 27 26 24 23 21 20 20 19 19 19 19 20 22 24 26 28 29 30 31 32 31 31 32 33 34 36
41 41 40 39 39 37 36 36 35 36 36 36 36 34 33 31 30 29 28 27 25 24 22 21 21 20 20 19 19 20 22 24 25 27 28 29 30 30 29 29 30 32 33
47 47 46 45 44 43 42 40 39 38 38 39 39 38 37 35 33 31 30 29 28 27 25 23 22 21 21 20 19 19 20 21 22 25 26 27 27 27 28 28 28 30 31
53 53 53 52 51 49 48 46 45 43 42 42 42 42 41 39 36 35 33 32 30 28 27 25 23 22 21 20 19 18 18 20 20 21 23 24 25 25 26 26 26 27 28
55 58 59 58 57 56 54 53 51 49 48 46 45 44 44 43 41 38 36 35 33 31 29 27 25 23 22 21 20 19 18 18 19 20 21 22 23 23 24 23 24 25 25
53 57 61 63 64 63 61 60 58 56 54 51 49 48 47 46 44 42 40 38 35 33 31 29 27 25 23 22 21 19 18 18 19 20 21 22 23 24 25 25 25 25 25
51 53 57 62 65 67 67 66 64 62 60 57 55 53 51 50 48 46 43 41 38 36 34 31 29 27 25 23 21 20 19 18 19 21 22 23 24 25 26 26 26 26 26
49 51 53 56 61 65 68 69 69 67 65 63 60 58 55 54 52 49 47 45 42 39 36 34 31 28 26 24 22 20 19 19 20 21 23 24 26 26 27 27 26 26 26
49 49 51 53 55 59 63 67 70 71 70 68 65 62 59 56 54 52 51 48 45 42 39 36 33 31 28 26 24 21 20 20 20 21 23 24 25 26 27 27 28 27 27
52 50 50 51 52 53 55 59 64 69 71 71 69 66 63 60 56 54 53 51 48 45 42 39 35 32 29 27 24 22 20 20 20 21 23 24 25 26 27 27 27 27 27
52 51 49 49 49 49 49 50 54 60 66 70 71 69 66 64 60 57 55 53 50 47 43 40 37 33 31 28 25 23 21 20 20 20 21 22 24 25 26 26 26 26 26
49 49 48 48 47 48 47 46 46 49 54 62 68 68 67 67 64 57 55 54 52 49 46 42 38 35 33 30 27 24 22 21 21 21 21 22 23 23 24 25 25 24 24
44 46 47 47 46 46 46 45 44 43 45 49 57 63 65 65 65 63 58 54 52 49 46 44 40 37 34 31 28 25 23 21 21 21 22 21 22 23 24 24 23 24 23
39 42 43 45 45 45 45 45 44 42 41 42 46 52 58 61 61 61 58 55 52 50 47 44 41 38 36 33 29 26 23 21 20 21 21 21 21 22 23 23 23 23 23
35 37 39 41 42 44 44 44 43 41 39 39 40 44 49 55 58 58 57 55 53 51 49 45 42 39 36 33 30 27 25 23 21 21 21 21 21 22 22 22 22 22 22
Wind_Direction
264 266 266 267 269 269 269 269 269 268 269 270 273 276 278 276 272 268 263 261 259 255 254 253 255 253 249 245 241 237 234 233 233 233 232 231 230 232 233 236 237 237 236
259 262 263 264 265 265 265 266 267 267 266 266 269 271 270 272 270 267 262 260 258 254 251 251 253 256 252 246 243 240 237 236 236 236 235 234 233 232 233 235 237 238 238
254 255 258 261 262 262 263 263 264 264 264 264 266 265 265 267 268 264 260 258 256 252 251 251 252 254 253 251 249 245 241 240 239 239 239 238 236 235 235 236 236 237 238
250 252 256 257 258 259 261 261 260 260 261 261 260 259 260 261 261 259 259 259 258 257 256 255 254 254 254 253 252 250 244 244 244 242 241 240 239 239 238 238 237 236 237
249 252 256 257 256 256 258 259 258 257 256 257 256 255 254 255 256 255 257 260 261 262 263 262 260 259 258 255 255 254 251 249 248 247 245 242 242 242 242 241 239 238 238
247 252 254 255 255 255 254 254 253 253 252 251 251 250 249 249 249 250 251 255 260 263 265 266 265 264 262 258 256 257 255 254 252 251 248 246 246 245 244 242 241 240 239
248 249 252 253 253 254 253 250 249 249 247 246 245 244 244 244 244 245 247 250 255 260 264 268 268 268 266 261 257 257 256 256 255 255 254 252 249 248 246 244 242 241 240
252 249 251 251 252 254 252 248 246 244 243 241 239 240 241 241 242 242 244 246 250 257 263 267 269 268 267 264 260 259 257 256 256 255 254 255 252 251 247 244 243 242 240
257 252 250 251 253 253 250 247 245 242 239 237 237 238 240 241 241 242 242 244 249 256 262 266 268 269 268 265 262 260 258 257 256 256 256 256 255 253 250 246 244 242 241
263 259 255 253 253 252 249 247 244 241 238 235 235 237 240 241 243 244 242 245 250 256 263 267 270 271 271 269 266 263 261 258 257 257 258 257 257 255 252 248 243 242 241
264 260 258 255 252 251 250 247 244 241 238 235 235 236 239 242 243 244 243 243 248 256 263 269 273 275 276 274 271 269 266 262 258 257 257 256 255 254 252 248 243 242 240
263 259 257 256 252 251 250 247 244 241 239 237 236 236 238 241 243 245 245 245 248 253 260 268 273 277 279 278 275 273 270 265 260 257 257 255 253 253 252 250 244 242 239
259 257 255 253 251 249 248 247 245 243 240 238 237 237 238 239 241 243 246 248 250 253 258 265 272 277 280 281 279 277 272 266 261 259 256 254 251 252 252 248 243 240 240
256 254 252 251 249 247 246 245 244 243 242 240 239 238 238 238 239 241 244 247 251 254 258 264 270 276 280 282 283 282 276 268 262 259 254 249 248 249 246 245 244 242 242
254 251 249 248 246 245 244 243 243 242 241 240 240 239 238 238 238 239 241 244 249 254 259 263 269 274 279 281 283 283 280 272 262 257 249 245 244 245 244 243 242 241 242
254 250 247 246 245 243 242 241 240 239 240 240 240 240 239 239 239 238 239 242 245 250 256 262 268 273 277 279 281 282 279 270 260 255 247 242 242 240 241 241 242 243 245
257 252 248 246 244 242 241 240 238 237 237 238 239 240 239 240 239 239 239 240 242 246 251 258 264 270 274 277 279 280 279 269 260 251 245 242 241 241 241 243 244 246 248
259 255 251 248 245 243 241 239 237 236 236 236 237 239 239 239 239 239 238 239 240 243 247 253 259 264 268 273 277 279 277 269 260 252 246 244 244 244 244 246 247 248 250
262 257 254 250 247 244 242 240 238 236 235 235 236 237 238 238 238 238 238 238 239 241 244 248 253 258 263 267 272 276 275 268 260 253 247 245 246 246 246 247 248 250 253
262 258 254 251 249 247 244 242 239 237 235 234 234 235 236 236 237 237 238 238 237 238 240 244 248 254 257 262 266 270 270 266 260 254 249 247 247 246 247 248 249 251 252
261 256 253 251 249 247 246 244 242 239 237 235 233 233 233 234 234 235 235 236 236 236 237 240 244 249 253 256 261 263 265 264 260 254 249 247 248 248 249 249 250 250 251
259 254 250 248 246 245 245 244 243 242 239 237 236 234 233 232 232 233 233 234 234 234 235 236 239 243 248 252 255 258 260 260 257 254 250 246 246 248 248 248 248 249 249
256 250 245 243 241 241 241 242 242 242 241 239 238 236 234 233 232 231 231 232 231 231 232 233 236 239 243 248 251 253 255 256 254 252 249 247 247 247 247 246 247 248 248
252 246 242 239 238 237 237 238 239 240 240 240 239 237 235 234 234 233 231 230 230 229 229 230 232 235 239 243 246 248 250 253 251 249 248 248 249 248 247 247 248 248 249
248 243 239 237 235 234 235 235 236 236 237 238 238 237 235 234 232 231 230 229 228 227 227 227 229 231 235 239 241 243 247 248 247 246 245 247 248 247 246 246 249 250 249
244 239 236 234 233 232 232 232 233 233 234 236 237 235 233 232 231 229 227 226 225 224 225 225 225 227 230 233 236 238 241 243 244 244 244 245 245 245 246 249 250 251 249
Height
5850 5850 5850 5851 5851 5851 5851 5851 5851 5851 5851 5851 5850 5851 5851 5851 5852 5852 5853 5854 5855 5856 5858 5859 5861 5862 5864 5866 5868 5871 5873 5875 5877 5878 5880 5882 5884 5885 5887 5889 5890 5892 5894
5841 5841 5842 5843 5844 5844 5844 5844 5844 5845 5845 5845 5845 5846 5846 5846 5847 5847 5848 5848 5849 5850 5852 5853 5855 5857 5858 5860 5862 5864 5867 5870 5872 5874 5876 5878 5880 5881 5883 5885 5887 5889 5891
5831 5832 5833 5835 5836 5836 5837 5837 5838 5838 5839 5839 5840 5840 5841 5842 5842 5842 5843 5843 5845 5846 5847 5848 5850 5851 5853 5854 5856 5858 5861 5864 5866 5869 5871 5873 5875 5877 5879 5881 5883 5885 5887
5821 5823 5825 5826 5828 5829 5830 5830 5830 5831 5832 5833 5834 5835 5836 5837 5837 5838 5839 5839 5840 5842 5843 5844 5845 5846 5847 5849 5851 5853 5855 5858 5860 5863 5865 5868 5870 5873 5875 5877 5879 5881 5883
5812 5815 5816 5818 5820 5821 5822 5823 5824 5825 5826 5827 5829 5830 5831 5832 5833 5834 5835 5836 5836 5837 5838 5839 5840 5841 5842 5844 5845 5847 5849 5851 5854 5857 5859 5862 5865 5867 5870 5872 5874 5876 5878
5804 5806 5808 5810 5812 5814 5815 5816 5817 5818 5819 5821 5823 5824 5825 5827 5828 5830 5831 5831 5832 5833 5834 5835 5835 5836 5837 5838 5839 5841 5843 5845 5848 5850 5852 5855 5858 5861 5863 5866 5868 5871 5873
5795 5798 5801 5803 5805 5806 5808 5809 5810 5812 5813 5815 5817 5818 5820 5822 5824 5825 5827 5827 5829 5830 5830 5830 5830 5831 5831 5832 5833 5835 5837 5839 5841 5843 5845 5848 5850 5853 5856 5859 5862 5864 5867
5790 5792 5794 5796 5797 5799 5801 5802 5804 5805 5807 5808 5810 5812 5814 5817 5819 5821 5822 5824 5824 5826 5826 5826 5826 5825 5825 5826 5827 5828 5830 5832 5834 5836 5838 5841 5843 5845 5848 5851 5855 5857 5861
5785 5785 5787 5788 5790 5792 5793 5795 5797 5798 5800 5802 5804 5806 5808 5811 5813 5816 5817 5819 5820 5821 5821 5821 5821 5820 5820 5820 5821 5821 5823 5824 5826 5828 5831 5833 5835 5838 5841 5844 5847 5850 5853
5778 5779 5779 5781 5783 5784 5785 5787 5789 5791 5793 5795 5798 5800 5802 5805 5807 5810 5812 5814 5815 5816 5817 5817 5816 5815 5815 5815 5814 5815 5816 5817 5819 5821 5823 5826 5828 5830 5833 5836 5839 5842 5846
5770 5771 5772 5773 5774 5775 5776 5778 5780 5783 5785 5788 5790 5793 5795 5798 5800 5803 5806 5808 5810 5811 5811 5812 5811 5810 5809 5809 5808 5808 5809 5810 5812 5814 5816 5818 5820 5822 5825 5828 5831 5834 5838
5761 5761 5762 5763 5765 5766 5767 5769 5771 5774 5777 5779 5782 5785 5788 5791 5793 5795 5798 5801 5803 5805 5806 5806 5806 5805 5804 5803 5803 5802 5802 5803 5804 5806 5808 5810 5813 5815 5818 5820 5823 5826 5830
5749 5750 5750 5752 5754 5755 5757 5759 5762 5764 5767 5770 5773 5777 5780 5783 5786 5788 5790 5793 5796 5799 5800 5801 5800 5799 5798 5797 5797 5796 5796 5796 5797 5799 5801 5803 5806 5808 5810 5813 5816 5819 5822
5734 5735 5737 5739 5741 5743 5745 5748 5750 5753 5756 5760 5763 5767 5771 5774 5777 5780 5783 5786 5788 5791 5793 5794 5795 5794 5793 5791 5790 5790 5790 5790 5791 5792 5794 5796 5799 5801 5804 5807 5809 5812 5816
5716 5718 5720 5723 5726 5729 5732 5735 5738 5741 5744 5748 5752 5756 5760 5764 5768 5772 5775 5778 5781 5784 5786 5787 5788 5788 5787 5786 5785 5784 5784 5784 5785 5786 5788 5790 5793 5795 5798 5801 5803 5806 5809
5695 5697 5700 5704 5708 5712 5716 5720 5724 5727 5731 5735 5739 5744 5748 5753 5757 5761 5766 5769 5773 5776 5778 5780 5781 5781 5781 5781 5780 5779 5779 5779 5779 5781 5782 5784 5787 5789 5792 5795 5798 5800 5803
5674 5676 5679 5682 5687 5691 5697 5702 5707 5712 5716 5721 5726 5731 5736 5740 5746 5750 5755 5760 5764 5767 5770 5772 5774 5775 5775 5775 5775 5774 5774 5774 5775 5776 5778 5780 5782 5785 5788 5790 5793 5795 5797
5654 5655 5657 5660 5665 5670 5675 5681 5688 5694 5700 5705 5711 5716 5722 5727 5733 5738 5744 5749 5754 5758 5762 5765 5767 5768 5769 5769 5769 5769 5769 5769 5770 5771 5772 5775 5777 5780 5783 5785 5787 5790 5792
5633 5635 5636 5639 5643 5648 5653 5660 5667 5674 5681 5688 5695 5701 5707 5713 5719 5725 5731 5737 5743 5748 5752 5756 5759 5761 5762 5763 5763 5763 5763 5763 5764 5765 5767 5769 5772 5775 5777 5780 5782 5784 5786
5613 5614 5616 5619 5622 5626 5632 5638 5645 5653 5661 5669 5677 5684 5691 5698 5705 5711 5718 5724 5731 5737 5742 5746 5750 5753 5755 5756 5757 5757 5758 5758 5759 5760 5762 5764 5766 5769 5771 5774 5776 5777 5779
5590 5593 5596 5600 5603 5608 5612 5617 5624 5632 5641 5649 5657 5666 5674 5682 5689 5696 5703 5710 5718 5725 5731 5736 5741 5744 5748 5749 5750 5751 5752 5752 5753 5755 5756 5759 5761 5763 5765 5767 5769 5771 5772
5567 5570 5575 5580 5585 5590 5595 5600 5605 5612 5621 5629 5638 5647 5656 5664 5672 5680 5688 5696 5704 5712 5719 5726 5731 5736 5739 5742 5743 5745 5746 5747 5748 5750 5751 5753 5755 5757 5759 5761 5762 5764 5766
5544 5549 5555 5560 5566 5573 5579 5584 5590 5596 5603 5611 5620 5629 5638 5647 5655 5664 5673 5681 5690 5699 5708 5715 5721 5726 5731 5734 5736 5738 5739 5741 5742 5744 5746 5747 5749 5751 5753 5755 5756 5757 5759
5523 5529 5535 5543 5549 5556 5563 5569 5575 5581 5588 5594 5602 5611 5621 5630 5639 5648 5658 5667 5678 5687 5696 5704 5711 5716 5721 5725 5728 5730 5732 5734 5736 5738 5740 5742 5743 5745 5747 5749 5750 5752 5753
5505 5512 5519 5526 5534 5541 5548 5555 5561 5568 5575 5581 5587 5595 5604 5614 5624 5634 5645 5655 5665 5675 5684 5692 5700 5706 5712 5717 5720 5723 5726 5728 5730 5732 5734 5736 5738 5740 5741 5743 5745 5746 5748
5490 5497 5505 5512 5520 5527 5534 5542 5549 5556 5563 5569 5575 5581 5589 5599 5608 5619 5631 5643 5654 5664 5673 5682 5690 5696 5702 5708 5712 5716 5719 5722 5724 5726 5728 5731 5733 5734 5736 5738 5739 5741 5742